"startDT [UTC]","vpos","CH4 [ppm]","stdev(CH4) [ppm]","CO2 [ppm]","stdev(CO2) [ppm]","H2O [ppm]","stdev(H2O)","p_LGR [torr]","T_LGR [C]","mt1_LGR [us]","mt2_LGR [us]","T_ECpre [C]","T_EC1 [C]","T_EC2 [C]","p_inlet [hPa]","p_in [hPa]","p_out [hPa]","T_inlet [C]","RH_inlet [%]","dwpt_inlet [C]","T_vent [C]","RH_vent [%]","dwpt_vent [C]","flow_vent [l min-1]","flow_inlet [l min-1]","dwpt_sample [C]","T_room [C]"
2012-05-13 00:00:00,0.0,1.8955,0.0010,404.83,0.36,99.6,37.2,138.20,24.08,24.58,36.30,0.04,-272.73,-272.73,-51,549,-923,18.7,11.0,-12.4,19.0,11.3,-11.8,5.73,2.43,-26.2,24.6
2012-05-13 00:01:00,0.0,1.8951,0.0012,404.85,0.38,87.6,45.7,138.21,24.08,24.59,36.30,0.04,-272.73,-272.73,-50,549,-924,18.7,10.8,-12.5,19.0,11.2,-12.0,5.73,2.42,-26.2,24.6
2012-05-13 00:02:00,0.0,1.8951,0.0012,404.83,0.38,110.1,46.5,138.20,24.09,24.58,36.30,0.04,-272.74,-272.73,-51,549,-924,18.7,10.5,-12.9,19.0,10.8,-12.4,5.73,2.32,-26.2,24.6
2012-05-13 00:03:00,0.0,1.8952,0.0010,404.82,0.39,100.1,47.6,138.20,24.09,24.59,36.31,0.04,-272.74,-272.74,-50,549,-924,18.7,10.4,-13.1,19.0,10.7,-12.5,5.73,2.50,-26.2,24.6
2012-05-13 00:04:00,0.0,1.8954,0.0011,404.75,0.41,99.2,52.7,138.21,24.10,24.58,36.31,0.04,-272.73,-272.73,-51,549,-924,18.7,10.2,-13.2,19.0,10.5,-12.7,5.73,2.29,-26.2,24.6
2012-05-13 00:05:00,0.0,1.8950,0.0010,404.84,0.42,107.2,53.2,138.20,24.10,24.59,36.30,0.04,-272.73,-272.73,-50,549,-924,18.7,10.1,-13.4,19.0,10.4,-12.9,5.73,2.48,-26.2,24.6
2012-05-13 00:06:00,0.0,1.8956,0.0012,404.87,0.38,104.2,45.8,138.20,24.10,24.58,36.31,0.04,-272.73,-272.74,-51,549,-924,18.7,10.0,-13.5,19.0,10.2,-13.0,5.73,2.36,-26.2,24.6
2012-05-13 00:07:00,0.0,1.8954,0.0012,404.80,0.36,100.6,48.9,138.21,24.11,24.59,36.31,0.04,-272.73,-272.74,-50,549,-924,18.7,9.9,-13.6,19.0,10.1,-13.1,5.73,2.37,-26.2,24.6
2012-05-13 00:08:00,0.0,1.8954,0.0011,404.75,0.43,87.3,45.8,138.20,24.11,24.58,36.31,0.04,-272.73,-272.73,-51,549,-923,18.7,9.9,-13.7,19.0,10.1,-13.1,5.73,2.47,-26.2,24.6
2012-05-13 00:09:00,0.0,1.8957,0.0010,404.85,0.42,96.2,52.9,138.20,24.12,24.58,36.31,0.04,-272.73,-272.74,-50,549,-924,18.8,9.8,-13.8,19.0,10.1,-13.2,5.73,2.29,-26.2,24.5
2012-05-13 00:10:00,0.0,1.8953,0.0009,404.76,0.42,98.9,44.1,138.20,24.12,24.59,36.31,0.04,-272.73,-272.73,-51,549,-924,18.8,9.7,-13.8,19.0,10.0,-13.3,5.73,2.50,-26.2,24.6
2012-05-13 00:11:00,0.0,1.8951,0.0012,404.89,0.41,89.5,43.7,138.20,24.13,24.58,36.31,0.04,-272.73,-272.73,-50,549,-924,18.8,9.8,-13.7,19.1,10.1,-13.2,5.73,2.32,-26.2,24.6
2012-05-13 00:12:00,0.0,1.8952,0.0013,404.91,0.38,84.3,47.7,138.20,24.13,24.59,36.30,0.04,-272.73,-272.74,-51,550,-924,18.8,10.0,-13.5,19.1,10.3,-12.9,5.73,2.42,-26.1,24.6
2012-05-13 00:13:00,0.0,1.8950,0.0011,404.98,0.33,85.5,50.9,138.20,24.14,24.59,36.31,0.04,-272.74,-272.74,-51,549,-923,18.8,9.9,-13.6,19.1,10.1,-13.1,5.73,2.42,-26.1,24.6
2012-05-13 00:14:00,0.0,1.8951,0.0012,404.99,0.40,101.5,36.8,138.20,24.14,24.59,36.31,0.04,-272.73,-272.74,-51,550,-924,18.8,9.8,-13.7,19.1,10.1,-13.2,5.73,2.32,-26.1,24.6
2012-05-13 00:15:00,0.0,1.8949,0.0011,404.92,0.42,94.2,45.2,138.20,24.14,24.59,36.31,0.04,-272.73,-272.73,-51,549,-924,18.8,9.8,-13.7,19.1,10.0,-13.2,5.73,2.50,-26.1,24.7
2012-05-13 00:16:00,0.0,1.8952,0.0010,404.95,0.44,103.1,40.8,138.20,24.15,24.59,36.31,0.04,-272.73,-272.74,-50,550,-924,18.8,9.8,-13.7,19.1,10.1,-13.1,5.73,2.30,-26.1,24.7
2012-05-13 00:17:00,0.0,1.8952,0.0011,404.92,0.37,103.7,41.4,138.20,24.15,24.59,36.31,0.04,-272.74,-272.73,-51,549,-924,18.8,9.8,-13.7,19.1,10.1,-13.2,5.73,2.46,-26.1,24.7
2012-05-13 00:18:00,0.0,1.8955,0.0013,405.03,0.35,106.2,48.9,138.20,24.16,24.58,36.30,0.04,-272.74,-272.73,-50,550,-924,18.9,9.7,-13.8,19.1,10.0,-13.2,5.73,2.39,-26.1,24.7
2012-05-13 00:19:00,0.0,1.8948,0.0011,404.85,0.34,95.6,47.5,138.20,24.16,24.59,36.31,0.04,-272.73,-272.73,-51,550,-924,18.9,9.7,-13.8,19.1,10.0,-13.2,5.73,2.34,-26.1,24.7
2012-05-13 00:20:00,0.0,1.8951,0.0010,404.86,0.43,94.4,49.1,138.20,24.16,24.59,36.30,0.04,-272.73,-272.73,-50,550,-923,18.8,9.7,-13.8,19.1,10.0,-13.2,5.73,2.49,-26.0,24.8
2012-05-13 00:21:00,0.0,1.8951,0.0010,404.98,0.41,111.9,51.3,138.20,24.17,24.58,36.30,0.04,-272.73,-272.73,-51,550,-924,18.9,9.8,-13.7,19.2,10.0,-13.1,5.73,2.29,-26.0,24.7
2012-05-13 00:22:00,0.0,1.8951,0.0011,404.75,0.40,112.5,51.2,138.20,24.17,24.59,36.31,0.04,-272.73,-272.73,-50,550,-923,18.9,9.9,-13.6,19.2,10.1,-13.0,5.73,2.48,-26.1,24.8
2012-05-13 00:23:00,0.0,1.8952,0.0010,404.74,0.34,115.9,55.1,138.20,24.18,24.58,36.31,0.04,-272.74,-272.74,-51,550,-924,18.9,10.0,-13.4,19.2,10.3,-12.8,5.73,2.36,-26.0,24.8
2012-05-13 00:24:00,0.0,1.8953,0.0010,404.88,0.43,125.9,49.7,138.20,24.19,24.58,36.31,0.04,-272.73,-272.73,-50,550,-924,18.9,10.1,-13.3,19.2,10.3,-12.8,5.73,2.37,-26.0,24.8
2012-05-13 00:25:00,0.0,1.8952,0.0010,405.01,0.39,116.8,39.8,138.20,24.19,24.59,36.30,0.04,-272.73,-272.73,-51,550,-924,18.9,10.3,-13.1,19.2,10.6,-12.5,5.73,2.48,-26.0,24.8
2012-05-13 00:26:00,0.0,1.8950,0.0010,404.88,0.43,110.9,52.9,138.20,24.20,24.59,36.30,0.04,-272.73,-272.74,-50,550,-924,18.9,10.4,-12.9,19.2,10.7,-12.4,5.73,2.29,-26.0,24.7
2012-05-13 00:27:00,0.0,1.8955,0.0011,404.90,0.38,99.8,45.8,138.20,24.20,24.58,36.30,0.04,-272.73,-272.73,-51,550,-923,18.9,10.4,-12.8,19.2,10.8,-12.3,5.73,2.49,-26.0,24.7
2012-05-13 00:28:00,0.0,1.8952,0.0011,404.96,0.37,115.0,53.1,138.20,24.21,24.58,36.30,0.04,-272.73,-272.73,-51,550,-924,19.0,10.4,-12.8,19.2,10.7,-12.3,5.73,2.34,-26.0,24.8
2012-05-13 00:29:00,0.0,1.8953,0.0010,405.02,0.41,105.4,44.7,138.20,24.21,24.59,36.30,0.04,-272.73,-272.74,-50,550,-924,19.0,10.4,-12.8,19.2,10.7,-12.3,5.73,2.39,-26.0,24.8
2012-05-13 00:30:00,0.0,1.8955,0.0011,404.88,0.41,115.2,46.4,138.20,24.21,24.58,36.30,0.04,-272.74,-272.74,-51,550,-924,19.0,10.5,-12.8,19.2,10.8,-12.2,5.73,2.45,-26.0,24.8
2012-05-13 00:31:00,0.0,1.8957,0.0012,404.96,0.43,108.9,47.8,138.20,24.22,24.58,36.31,0.04,-272.73,-272.73,-50,550,-924,19.0,10.4,-12.9,19.2,10.7,-12.3,5.73,2.30,-26.0,24.8
2012-05-13 00:32:00,0.0,1.8955,0.0010,405.07,0.38,114.0,46.8,138.20,24.22,24.59,36.30,0.04,-272.73,-272.73,-51,550,-924,19.0,10.3,-13.0,19.2,10.6,-12.4,5.73,2.49,-26.0,24.8
2012-05-13 00:33:00,0.0,1.8952,0.0010,404.95,0.43,130.0,42.5,138.20,24.23,24.58,36.30,0.04,-272.74,-272.74,-50,551,-924,19.0,10.3,-12.9,19.3,10.6,-12.4,5.73,2.33,-25.9,24.8
2012-05-13 00:34:00,0.0,1.8956,0.0010,404.88,0.44,120.7,46.2,138.20,24.23,24.58,36.31,0.04,-272.73,-272.73,-51,550,-923,19.0,10.4,-12.8,19.3,10.7,-12.2,5.73,2.39,-26.0,24.8
2012-05-13 00:35:00,0.0,1.8957,0.0010,404.88,0.43,132.6,50.3,138.20,24.24,24.59,36.31,0.04,-272.73,-272.73,-50,550,-924,19.0,10.4,-12.8,19.3,10.7,-12.3,5.73,2.46,-25.9,24.8
2012-05-13 00:36:00,0.0,1.8955,0.0010,404.84,0.43,129.1,49.9,138.20,24.25,24.59,36.31,0.04,-272.73,-272.74,-51,551,-923,19.0,10.6,-12.6,19.3,10.9,-12.0,5.73,2.29,-25.9,24.8
2012-05-13 00:37:00,0.0,1.8956,0.0009,404.88,0.45,124.9,51.2,138.20,24.25,24.58,36.30,0.04,-272.73,-272.73,-51,550,-924,19.1,10.4,-12.8,19.3,10.7,-12.2,5.73,2.48,-25.9,24.8
2012-05-13 00:38:00,0.0,1.8954,0.0012,404.85,0.47,120.3,51.1,138.20,24.26,24.59,36.30,0.04,-272.73,-272.73,-51,551,-924,19.1,10.6,-12.5,19.3,10.9,-12.0,5.73,2.35,-25.9,24.9
2012-05-13 00:39:00,0.0,1.8952,0.0011,404.89,0.42,108.9,33.6,138.20,24.27,24.59,36.30,0.04,-272.73,-272.73,-51,550,-923,19.0,10.8,-12.3,19.3,11.1,-11.8,5.73,2.38,-25.9,24.9
2012-05-13 00:40:00,1.0,1.8855,0.0073,388.91,10.95,106.8,48.5,138.20,24.27,24.59,36.31,0.04,-272.74,-272.74,-50,548,-924,19.1,10.9,-12.3,19.3,11.2,-11.7,5.73,2.50,-25.9,24.9
2012-05-13 00:41:00,1.0,1.8774,0.0010,376.56,0.44,129.8,44.7,138.20,24.28,24.58,36.31,0.04,-272.73,-272.73,-51,545,-924,19.1,10.9,-12.2,19.3,11.2,-11.7,5.73,2.29,-25.9,24.9
2012-05-13 00:42:00,1.0,1.8773,0.0011,376.55,0.39,117.3,40.4,138.20,24.28,24.59,36.32,0.04,-272.73,-272.73,-50,545,-924,19.1,11.0,-12.1,19.3,11.3,-11.5,5.73,2.48,-25.9,24.9
2012-05-13 00:43:00,1.0,1.8777,0.0012,376.58,0.40,120.0,49.9,138.20,24.28,24.58,36.31,0.04,-272.74,-272.74,-51,546,-924,19.1,10.9,-12.2,19.3,11.2,-11.6,5.73,2.35,-25.9,24.9
2012-05-13 00:44:00,1.0,1.8776,0.0011,376.59,0.39,115.0,43.3,138.20,24.29,24.58,36.31,0.04,-272.73,-272.74,-50,545,-924,19.1,10.6,-12.4,19.4,11.0,-11.9,5.73,2.36,-25.9,24.9
2012-05-13 00:45:00,0.0,1.8867,0.0069,392.35,10.98,113.9,49.7,138.20,24.29,24.59,36.31,0.04,-272.73,-272.73,-51,549,-924,19.2,10.6,-12.4,19.4,10.9,-11.9,5.73,2.51,-25.9,24.8
2012-05-13 00:46:00,0.0,1.8945,0.0010,404.71,0.42,108.2,35.9,138.20,24.29,24.59,36.30,0.04,-272.73,-272.74,-51,549,-923,19.2,10.7,-12.3,19.4,11.1,-11.8,5.73,2.29,-25.5,24.9
2012-05-13 00:47:00,0.0,1.8946,0.0010,404.59,0.38,122.0,41.4,138.20,24.30,24.59,36.30,0.04,-272.73,-272.73,-51,549,-924,19.2,10.7,-12.4,19.4,11.0,-11.8,5.73,2.48,-25.5,24.9
2012-05-13 00:48:00,0.0,1.8946,0.0010,404.68,0.44,110.9,44.1,138.20,24.30,24.59,36.30,0.04,-272.73,-272.74,-51,549,-923,19.2,10.6,-12.4,19.4,10.9,-11.9,5.73,2.35,-25.5,24.9
2012-05-13 00:49:00,0.0,1.8945,0.0010,404.60,0.42,108.4,50.7,138.20,24.30,24.59,36.30,0.04,-272.73,-272.74,-51,550,-924,19.3,10.7,-12.3,19.4,11.0,-11.8,5.73,2.37,-25.5,24.9
2012-05-13 00:50:00,0.0,1.8953,0.0011,404.71,0.36,120.8,40.5,138.20,24.31,24.58,36.30,0.04,-272.73,-272.74,-51,549,-923,19.3,10.9,-12.1,19.5,11.2,-11.5,5.73,2.46,-25.5,24.9
2012-05-13 00:51:00,0.0,1.8950,0.0011,404.57,0.42,127.2,48.3,138.20,24.31,24.59,36.30,0.04,-272.73,-272.74,-51,550,-924,19.3,10.8,-12.1,19.5,11.2,-11.5,5.73,2.29,-25.5,25.0
2012-05-13 00:52:00,0.0,1.8958,0.0012,404.73,0.45,132.7,43.0,138.20,24.32,24.58,36.30,0.04,-272.73,-272.73,-51,549,-924,19.3,10.6,-12.3,19.5,11.0,-11.7,5.73,2.48,-25.5,24.9
2012-05-13 00:53:00,0.0,1.8960,0.0012,404.66,0.42,141.9,44.9,138.20,24.33,24.58,36.31,0.04,-272.73,-272.74,-51,550,-924,19.3,10.7,-12.2,19.5,11.1,-11.7,5.73,2.35,-25.5,24.9
2012-05-13 00:54:00,0.0,1.8959,0.0011,404.69,0.42,130.6,44.5,138.20,24.34,24.59,36.30,0.04,-272.73,-272.74,-51,550,-924,19.3,10.7,-12.3,19.5,11.0,-11.7,5.73,2.37,-25.5,25.0
2012-05-13 00:55:00,0.0,1.8955,0.0009,404.67,0.41,154.1,48.3,138.20,24.34,24.59,36.31,0.04,-272.73,-272.73,-51,550,-924,19.3,10.6,-12.4,19.5,10.9,-11.8,5.73,2.47,-25.5,25.0
2012-05-13 00:56:00,0.0,1.8954,0.0010,404.80,0.43,136.5,42.6,138.20,24.35,24.59,36.31,0.04,-272.73,-272.74,-51,550,-924,19.3,10.7,-12.2,19.5,11.1,-11.7,5.73,2.29,-25.5,24.9
2012-05-13 00:57:00,0.0,1.8954,0.0012,404.78,0.46,141.6,40.6,138.20,24.36,24.58,36.30,0.04,-272.73,-272.74,-51,550,-924,19.3,10.7,-12.2,19.5,11.1,-11.6,5.73,2.48,-25.5,25.0
2012-05-13 00:58:00,0.0,1.8956,0.0010,404.85,0.46,142.9,47.7,138.20,24.36,24.59,36.30,0.04,-272.73,-272.73,-51,550,-924,19.4,10.8,-12.1,19.5,11.2,-11.5,5.73,2.36,-25.5,25.0
2012-05-13 00:59:00,0.0,1.8964,0.0010,404.87,0.46,135.0,39.2,138.19,24.37,24.58,36.30,0.04,-272.73,-272.73,-51,550,-924,19.4,10.8,-12.0,19.5,11.2,-11.5,5.73,2.35,-25.5,25.0
2012-05-13 01:00:00,0.0,1.8957,0.0010,404.91,0.50,139.1,49.4,138.20,24.38,24.58,36.29,0.04,-272.73,-272.74,-51,550,-924,19.4,10.8,-12.1,19.6,11.2,-11.5,5.73,2.48,-25.5,25.0
2012-05-13 01:01:00,0.0,1.8953,0.0011,404.87,0.41,121.0,42.9,138.19,24.38,24.58,36.30,0.04,-272.73,-272.73,-51,550,-924,19.4,10.8,-12.1,19.6,11.2,-11.5,5.73,2.30,-25.5,25.0
2012-05-13 01:02:00,0.0,1.8952,0.0011,404.92,0.44,138.4,37.2,138.19,24.39,24.58,36.30,0.04,-272.73,-272.73,-51,550,-924,19.4,10.8,-12.0,19.6,11.2,-11.4,5.73,2.45,-25.5,25.1
2012-05-13 01:03:00,0.0,1.8955,0.0010,404.97,0.48,129.7,43.9,138.20,24.39,24.58,36.30,0.04,-272.73,-272.73,-51,551,-924,19.4,10.8,-12.0,19.6,11.2,-11.4,5.73,2.39,-25.5,25.1
2012-05-13 01:04:00,0.0,1.8949,0.0009,405.04,0.42,136.6,40.7,138.19,24.40,24.59,36.29,0.04,-272.73,-272.74,-51,550,-923,19.4,10.9,-11.9,19.6,11.3,-11.4,5.73,2.32,-25.5,25.1
2012-05-13 01:05:00,0.0,1.8956,0.0011,404.84,0.36,137.6,43.7,138.19,24.40,24.58,36.30,0.04,-272.73,-272.73,-52,551,-924,19.4,10.9,-12.0,19.6,11.3,-11.4,5.73,2.49,-25.5,25.0
2012-05-13 01:06:00,0.0,1.8958,0.0010,404.84,0.47,141.6,40.0,138.19,24.41,24.58,36.30,0.04,-272.73,-272.73,-51,551,-924,19.5,10.9,-11.9,19.6,11.3,-11.3,5.73,2.30,-25.5,25.0
2012-05-13 01:07:00,0.0,1.8957,0.0010,404.91,0.49,136.3,44.5,138.19,24.42,24.58,36.30,0.04,-272.74,-272.73,-52,551,-924,19.5,10.9,-11.8,19.7,11.3,-11.3,5.73,2.42,-25.5,25.1
2012-05-13 01:08:00,0.0,1.8959,0.0011,404.94,0.33,142.5,49.0,138.19,24.43,24.59,36.30,0.04,-272.73,-272.74,-51,551,-924,19.5,11.1,-11.6,19.7,11.5,-11.1,5.73,2.43,-25.5,25.0
2012-05-13 01:09:00,0.0,1.8956,0.0010,404.97,0.39,142.8,47.0,138.19,24.43,24.59,36.30,0.04,-272.73,-272.73,-51,551,-924,19.5,10.9,-11.9,19.7,11.3,-11.3,5.73,2.29,-25.5,25.0
2012-05-13 01:10:00,0.0,1.8957,0.0009,404.86,0.52,136.4,47.3,138.19,24.44,24.59,36.30,0.04,-272.74,-272.74,-51,551,-924,19.5,11.0,-11.8,19.7,11.4,-11.2,5.73,2.48,-25.5,25.1
2012-05-13 01:11:00,0.0,1.8961,0.0010,404.86,0.38,140.6,45.8,138.19,24.45,24.58,36.30,0.04,-272.73,-272.73,-51,551,-924,19.5,11.0,-11.7,19.7,11.4,-11.2,5.73,2.34,-25.5,25.1
2012-05-13 01:12:00,0.0,1.8961,0.0010,404.92,0.38,145.3,43.4,138.19,24.45,24.59,36.30,0.04,-272.73,-272.73,-52,551,-924,19.5,10.9,-11.8,19.7,11.3,-11.2,5.73,2.37,-25.5,25.1
2012-05-13 01:13:00,0.0,1.8957,0.0009,404.91,0.47,137.9,45.7,138.19,24.46,24.58,36.30,0.04,-272.74,-272.74,-51,551,-923,19.5,10.9,-11.9,19.7,11.3,-11.3,5.73,2.47,-25.5,25.1
2012-05-13 01:14:00,0.0,1.8956,0.0010,404.89,0.42,142.5,44.8,138.19,24.47,24.59,36.30,0.04,-272.73,-272.74,-52,551,-924,19.5,10.8,-12.0,19.7,11.2,-11.4,5.73,2.29,-25.5,25.1
2012-05-13 01:15:00,0.0,1.8957,0.0011,404.88,0.42,132.1,45.0,138.19,24.47,24.58,36.30,0.04,-272.73,-272.73,-51,551,-924,19.6,10.9,-11.8,19.7,11.3,-11.3,5.73,2.44,-25.5,25.1
2012-05-13 01:16:00,0.0,1.8954,0.0011,404.93,0.37,139.0,47.9,138.19,24.48,24.59,36.29,0.04,-272.74,-272.73,-52,552,-924,19.6,10.9,-11.8,19.7,11.2,-11.3,5.73,2.40,-25.5,25.1
2012-05-13 01:17:00,0.0,1.8955,0.0010,404.92,0.41,119.2,38.9,138.19,24.48,24.58,36.29,0.04,-272.74,-272.74,-51,552,-924,19.6,11.0,-11.7,19.8,11.4,-11.1,5.73,2.31,-25.5,25.1
2012-05-13 01:18:00,0.0,1.8955,0.0011,404.85,0.40,132.4,40.9,138.19,24.49,24.59,36.30,0.04,-272.73,-272.73,-51,552,-924,19.6,10.9,-11.8,19.8,11.3,-11.2,5.73,2.49,-25.5,25.2
2012-05-13 01:19:00,0.0,1.8959,0.0009,404.93,0.44,135.0,45.1,138.19,24.50,24.59,36.29,0.04,-272.73,-272.73,-52,552,-924,19.6,11.1,-11.6,19.8,11.5,-11.0,5.73,2.32,-25.5,25.2
2012-05-13 01:20:00,0.0,1.8959,0.0012,404.92,0.46,133.0,41.0,138.19,24.50,24.59,36.29,0.04,-272.74,-272.74,-51,552,-924,19.6,11.1,-11.6,19.8,11.5,-11.0,5.73,2.39,-25.5,25.2
2012-05-13 01:21:00,0.0,1.8958,0.0009,404.94,0.44,138.1,40.9,138.19,24.51,24.58,36.29,0.04,-272.73,-272.73,-52,552,-924,19.6,11.0,-11.7,19.8,11.4,-11.1,5.73,2.45,-25.5,25.2
2012-05-13 01:22:00,0.0,1.8964,0.0010,404.81,0.39,135.5,41.3,138.19,24.52,24.58,36.29,0.04,-272.73,-272.74,-51,552,-923,19.6,11.0,-11.6,19.8,11.5,-11.0,5.73,2.29,-25.5,25.2
2012-05-13 01:23:00,0.0,1.8962,0.0012,404.97,0.42,140.9,40.6,138.19,24.53,24.59,36.30,0.04,-272.73,-272.73,-52,552,-924,19.6,11.1,-11.6,19.8,11.4,-11.0,5.73,2.46,-25.5,25.2
2012-05-13 01:24:00,0.0,1.8961,0.0008,404.91,0.41,137.1,45.4,138.19,24.53,24.59,36.30,0.04,-272.74,-272.73,-51,552,-924,19.7,11.0,-11.6,19.8,11.4,-11.1,5.73,2.39,-25.5,25.2
2012-05-13 01:25:00,0.0,1.8964,0.0010,404.98,0.41,141.2,45.8,138.19,24.54,24.58,36.29,0.04,-272.73,-272.73,-52,552,-924,19.7,11.1,-11.6,19.8,11.5,-11.0,5.73,2.32,-25.5,25.2
2012-05-13 01:26:00,0.0,1.8965,0.0008,404.97,0.47,138.1,45.2,138.19,24.55,24.58,36.30,0.04,-272.73,-272.73,-52,552,-924,19.7,11.0,-11.6,19.9,11.4,-11.0,5.73,2.48,-25.5,25.2
2012-05-13 01:27:00,0.0,1.8964,0.0011,404.80,0.38,140.2,45.9,138.19,24.56,24.58,36.30,0.04,-272.74,-272.74,-51,552,-924,19.7,11.1,-11.4,19.9,11.5,-10.9,5.73,2.32,-25.5,25.2
2012-05-13 01:28:00,0.0,1.8964,0.0010,405.02,0.37,151.6,39.3,138.19,24.57,24.59,36.30,0.04,-272.74,-272.73,-52,553,-924,19.7,11.1,-11.4,19.9,11.5,-10.9,5.73,2.38,-25.5,25.3
2012-05-13 01:29:00,0.0,1.8964,0.0010,404.91,0.45,123.5,48.8,138.19,24.57,24.58,36.29,0.04,-272.73,-272.73,-51,552,-924,19.7,11.1,-11.4,19.9,11.5,-10.9,5.73,2.46,-25.5,25.3
2012-05-13 01:30:00,0.0,1.8961,0.0009,404.87,0.32,142.0,43.6,138.19,24.58,24.59,36.30,0.04,-272.74,-272.74,-52,553,-924,19.7,11.0,-11.6,19.9,11.4,-11.0,5.73,2.29,-25.5,25.3
2012-05-13 01:31:00,0.0,1.8960,0.0009,404.97,0.42,143.6,42.4,138.19,24.59,24.59,36.30,0.04,-272.73,-272.74,-51,552,-924,19.7,10.8,-11.8,19.9,11.2,-11.2,5.73,2.44,-25.5,25.3
2012-05-13 01:32:00,0.0,1.8968,0.0010,404.94,0.47,135.8,35.8,138.19,24.60,24.58,36.30,0.04,-272.73,-272.73,-52,553,-924,19.8,10.8,-11.8,19.9,11.2,-11.2,5.73,2.40,-25.4,25.4
2012-05-13 01:33:00,0.0,1.8966,0.0010,405.03,0.41,140.3,33.5,138.19,24.60,24.59,36.29,0.04,-272.74,-272.74,-52,552,-924,19.8,10.8,-11.8,19.9,11.2,-11.2,5.73,2.30,-25.5,25.3
2012-05-13 01:34:00,0.0,1.8968,0.0009,404.89,0.44,139.6,42.4,138.19,24.61,24.59,36.30,0.04,-272.73,-272.74,-51,552,-924,19.8,10.8,-11.8,19.9,11.2,-11.2,5.73,2.47,-25.4,25.3
2012-05-13 01:35:00,0.0,1.8965,0.0009,404.84,0.40,142.9,40.4,138.19,24.62,24.59,36.30,0.04,-272.73,-272.73,-52,553,-924,19.8,10.8,-11.7,19.9,11.2,-11.1,5.73,2.35,-25.4,25.3
2012-05-13 01:36:00,0.0,1.8965,0.0013,404.94,0.44,146.7,46.6,138.19,24.63,24.59,36.29,0.04,-272.73,-272.73,-51,553,-924,19.8,10.8,-11.7,19.9,11.2,-11.2,5.73,2.34,-25.4,25.4
2012-05-13 01:37:00,0.0,1.8970,0.0010,404.92,0.40,153.1,41.7,138.19,24.64,24.58,36.30,0.04,-272.73,-272.73,-52,553,-924,19.8,10.8,-11.7,20.0,11.2,-11.1,5.73,2.47,-25.4,25.3
2012-05-13 01:38:00,0.0,1.8968,0.0009,405.05,0.40,146.9,40.1,138.19,24.65,24.59,36.29,0.04,-272.74,-272.73,-51,553,-924,19.8,10.8,-11.8,20.0,11.2,-11.2,5.73,2.30,-25.4,25.3
2012-05-13 01:39:00,0.0,1.8970,0.0010,404.88,0.37,139.8,36.6,138.19,24.65,24.58,36.29,0.04,-272.73,-272.74,-51,553,-924,19.8,10.8,-11.7,20.0,11.2,-11.1,5.73,2.39,-25.4,25.4
2012-05-13 01:40:00,0.0,1.8969,0.0010,404.80,0.38,146.1,39.0,138.19,24.66,24.59,36.29,0.04,-272.73,-272.73,-52,553,-924,19.8,10.9,-11.7,20.0,11.3,-11.1,5.73,2.45,-25.4,25.4
2012-05-13 01:41:00,0.0,1.8968,0.0008,404.91,0.42,144.0,42.3,138.19,24.67,24.59,36.29,0.04,-272.73,-272.74,-51,553,-924,19.8,10.9,-11.6,20.0,11.3,-11.0,5.73,2.29,-25.4,25.4
2012-05-13 01:42:00,0.0,1.8967,0.0010,404.93,0.42,147.2,41.1,138.19,24.68,24.59,36.29,0.04,-272.73,-272.73,-52,553,-924,19.8,11.0,-11.5,20.0,11.3,-11.0,5.73,2.44,-25.4,25.4
2012-05-13 01:43:00,0.0,1.8968,0.0010,404.88,0.35,144.4,35.4,138.19,24.69,24.58,36.29,0.04,-272.73,-272.73,-51,553,-924,19.9,10.9,-11.5,20.0,11.3,-11.0,5.73,2.41,-25.4,25.5
2012-05-13 01:44:00,0.0,1.8971,0.0009,404.93,0.36,142.9,37.0,138.19,24.70,24.58,36.29,0.04,-272.74,-272.74,-52,553,-924,19.8,10.9,-11.6,20.0,11.3,-11.0,5.73,2.29,-25.4,25.4
2012-05-13 01:45:00,0.0,1.8965,0.0011,404.97,0.35,143.6,32.3,138.18,24.70,24.59,36.30,0.04,-272.73,-272.73,-52,553,-924,19.9,10.8,-11.7,20.1,11.2,-11.1,5.73,2.47,-25.4,25.4
2012-05-13 01:46:00,0.0,1.8966,0.0009,404.89,0.44,143.1,40.4,138.19,24.71,24.59,36.29,0.04,-272.74,-272.73,-51,553,-924,19.9,10.7,-11.8,20.1,11.2,-11.1,5.73,2.36,-25.3,25.4
2012-05-13 01:47:00,0.0,1.8970,0.0011,404.91,0.44,142.0,45.3,138.19,24.72,24.59,36.29,0.04,-272.74,-272.74,-52,553,-924,19.9,10.8,-11.7,20.1,11.2,-11.1,5.73,2.32,-25.3,25.5
2012-05-13 01:48:00,0.0,1.8966,0.0011,404.80,0.43,157.4,41.6,138.19,24.73,24.59,36.29,0.04,-272.73,-272.74,-51,553,-924,19.9,10.8,-11.6,20.1,11.2,-11.0,5.73,2.48,-25.4,25.5
2012-05-13 01:49:00,0.0,1.8972,0.0008,404.89,0.43,142.4,34.9,138.19,24.74,24.58,36.29,0.04,-272.73,-272.73,-52,554,-924,19.9,10.8,-11.7,20.1,11.2,-11.1,5.73,2.32,-25.3,25.5
2012-05-13 01:50:00,0.0,1.8967,0.0008,404.95,0.35,152.0,39.1,138.18,24.74,24.59,36.29,0.04,-272.74,-272.73,-52,553,-924,19.9,10.7,-11.8,20.1,11.1,-11.2,5.73,2.36,-25.3,25.4
2012-05-13 01:51:00,0.0,1.8969,0.0011,404.95,0.38,159.4,41.5,138.19,24.75,24.59,36.29,0.04,-272.74,-272.73,-52,554,-924,20.0,10.6,-11.8,20.1,11.0,-11.3,5.73,2.47,-25.3,25.4
2012-05-13 01:52:00,0.0,1.8972,0.0008,404.79,0.43,155.7,38.8,138.19,24.76,24.58,36.29,0.04,-272.73,-272.73,-52,554,-924,20.0,10.7,-11.8,20.1,11.1,-11.2,5.73,2.29,-25.3,25.5
2012-05-13 01:53:00,0.0,1.8971,0.0008,404.64,0.34,156.5,37.4,138.18,24.77,24.59,36.30,0.04,-272.73,-272.74,-51,554,-924,20.0,10.7,-11.7,20.1,11.1,-11.1,5.73,2.41,-25.3,25.5
2012-05-13 01:54:00,0.0,1.8971,0.0008,404.87,0.41,159.5,39.4,138.19,24.77,24.59,36.28,0.04,-272.74,-272.74,-52,554,-924,20.0,10.7,-11.7,20.1,11.1,-11.2,5.73,2.44,-25.3,25.5
2012-05-13 01:55:00,0.0,1.8968,0.0010,404.74,0.44,157.5,42.0,138.18,24.78,24.59,36.30,0.04,-272.73,-272.74,-52,554,-924,20.0,10.7,-11.7,20.1,11.1,-11.1,5.73,2.29,-25.3,25.5
2012-05-13 01:56:00,0.0,1.8963,0.0008,404.83,0.41,155.7,36.5,138.18,24.79,24.59,36.29,0.04,-272.74,-272.73,-52,554,-924,20.0,10.7,-11.7,20.1,11.1,-11.1,5.73,2.43,-25.3,25.5
2012-05-13 01:57:00,0.0,1.8963,0.0010,404.84,0.35,147.9,32.8,138.19,24.79,24.59,36.29,0.04,-272.73,-272.74,-52,554,-924,20.0,10.7,-11.7,20.1,11.1,-11.1,5.73,2.42,-25.3,25.6
2012-05-13 01:58:00,0.0,1.8961,0.0010,404.91,0.37,163.2,43.0,138.18,24.80,24.59,36.29,0.04,-272.73,-272.74,-52,554,-924,20.0,10.7,-11.7,20.2,11.1,-11.1,5.73,2.29,-25.3,25.6
2012-05-13 01:59:00,0.0,1.8968,0.0011,404.72,0.38,157.6,36.7,138.18,24.81,24.59,36.30,0.04,-272.73,-272.73,-52,554,-924,20.0,10.8,-11.6,20.2,11.1,-11.1,5.73,2.45,-25.2,25.6
2012-05-13 02:00:00,0.0,1.8972,0.0009,404.75,0.39,162.6,42.4,138.18,24.81,24.58,36.30,0.04,-272.73,-272.74,-52,554,-924,20.1,11.0,-11.3,20.2,11.4,-10.8,5.73,2.40,-25.2,25.5
2012-05-13 02:01:00,0.0,1.8970,0.0010,404.78,0.38,155.3,39.9,138.18,24.82,24.59,36.28,0.04,-272.73,-272.73,-52,554,-924,20.0,11.0,-11.3,20.2,11.4,-10.8,5.73,2.29,-25.2,25.6
2012-05-13 02:02:00,0.0,1.8971,0.0010,404.77,0.34,162.1,39.8,138.18,24.83,24.58,36.29,0.04,-272.73,-272.73,-52,554,-924,20.1,10.9,-11.5,20.2,11.2,-10.9,5.73,2.46,-25.2,25.6
2012-05-13 02:03:00,0.0,1.8973,0.0008,404.83,0.40,158.2,40.4,138.18,24.84,24.58,36.28,0.04,-272.73,-272.73,-52,555,-924,20.1,10.7,-11.6,20.3,11.1,-11.1,5.73,2.37,-25.2,25.6
2012-05-13 02:04:00,0.0,1.8968,0.0011,404.82,0.40,165.4,39.2,138.18,24.85,24.58,36.29,0.04,-272.74,-272.73,-52,554,-924,20.1,10.8,-11.6,20.3,11.1,-11.0,5.73,2.31,-25.2,25.6
2012-05-13 02:05:00,0.0,1.8964,0.0010,404.66,0.40,145.3,43.6,138.18,24.86,24.59,36.29,0.04,-272.73,-272.74,-52,554,-924,20.1,10.8,-11.5,20.3,11.2,-10.9,5.73,2.46,-25.2,25.7
2012-05-13 02:06:00,0.0,1.8970,0.0010,404.69,0.40,153.7,37.4,138.18,24.87,24.59,36.29,0.04,-272.73,-272.73,-52,554,-924,20.1,10.9,-11.4,20.3,11.2,-10.9,5.73,2.36,-25.2,25.7
2012-05-13 02:07:00,0.0,1.8973,0.0009,404.78,0.45,164.5,43.9,138.18,24.88,24.58,36.29,0.04,-272.73,-272.73,-52,554,-924,20.1,10.9,-11.4,20.3,11.2,-10.9,5.73,2.31,-25.2,25.7
2012-05-13 02:08:00,0.0,1.8971,0.0011,404.86,0.42,152.9,43.8,138.18,24.89,24.59,36.28,0.04,-272.73,-272.74,-52,555,-924,20.1,10.7,-11.6,20.3,11.1,-11.0,5.73,2.46,-25.2,25.7
2012-05-13 02:09:00,0.0,1.8968,0.0010,404.72,0.37,166.9,39.7,138.18,24.90,24.59,36.28,0.04,-272.73,-272.73,-52,555,-924,20.1,10.7,-11.6,20.3,11.1,-11.0,5.73,2.35,-25.2,25.7
2012-05-13 02:10:00,0.0,1.8965,0.0009,404.77,0.39,161.9,36.2,138.18,24.91,24.58,36.28,0.04,-272.73,-272.73,-52,555,-924,20.1,10.7,-11.7,20.3,11.0,-11.1,5.73,2.32,-25.1,25.7
2012-05-13 02:11:00,0.0,1.8960,0.0009,404.68,0.42,160.5,42.2,138.18,24.92,24.59,36.28,0.04,-272.73,-272.74,-52,555,-924,20.1,10.8,-11.5,20.3,11.1,-10.9,5.73,2.46,-25.1,25.8
2012-05-13 02:12:00,0.0,1.8969,0.0011,404.76,0.43,162.8,34.1,138.18,24.93,24.59,36.28,0.04,-272.73,-272.74,-52,555,-924,20.1,10.9,-11.4,20.3,11.2,-10.8,5.73,2.37,-25.1,25.8
2012-05-13 02:13:00,0.0,1.8970,0.0010,404.77,0.38,169.3,41.3,138.18,24.94,24.59,36.28,0.04,-272.73,-272.73,-52,555,-924,20.2,10.8,-11.5,20.3,11.2,-10.9,5.73,2.30,-25.1,25.8
2012-05-13 02:14:00,0.0,1.8967,0.0011,404.66,0.39,153.5,41.3,138.18,24.95,24.59,36.28,0.04,-272.73,-272.74,-52,555,-924,20.2,10.7,-11.5,20.4,11.1,-11.0,5.73,2.45,-25.1,25.8
2012-05-13 02:15:00,0.0,1.8969,0.0010,404.63,0.36,159.4,40.1,138.18,24.96,24.58,36.28,0.04,-272.73,-272.74,-52,555,-924,20.2,10.8,-11.5,20.4,11.2,-10.9,5.73,2.39,-25.1,25.8